AKDT,Max TemperatureF,Mean TemperatureF,Min TemperatureF,Max Dew PointF,MeanDew PointF,Min DewpointF,Max Humidity, Mean Humidity, Min Humidity, Max Sea Level PressureIn, Mean Sea Level PressureIn, Min Sea Level PressureIn, Max VisibilityMiles, Mean VisibilityMiles, Min VisibilityMiles, Max Wind SpeedMPH, Mean Wind SpeedMPH, Max Gust SpeedMPH,PrecipitationIn, CloudCover, Events, WindDirDegrees
2013-6-1,78,62,45,42,38,34,74,40,21,30.06,30.02,29.97,10,10,10,15,6,,0.00,1,,43
2013-6-2,79,62,44,48,42,38,79,46,24,30.03,29.95,29.84,10,10,10,20,5,31,0.00,1,,295
2013-6-3,58,54,50,49,47,44,94,75,61,29.92,29.81,29.65,10,10,9,7,3,,0.05,7,Rain,128
2013-6-4,57,52,47,49,47,42,97,80,62,29.64,29.59,29.56,10,10,10,17,4,,0.06,7,Rain,218
2013-6-5,57,52,47,49,42,37,93,68,54,29.87,29.78,29.63,10,10,10,12,5,22,0.04,8,Rain,237
2013-6-6,65,54,46,46,43,40,90,64,44,29.89,29.84,29.78,10,10,10,13,4,,0.01,5,Rain,287
2013-6-7,70,54,40,46,41,37,95,58,31,29.93,29.86,29.81,10,10,10,8,2,,0.00,5,,110
2013-6-8,72,58,44,44,42,37,85,50,29,30.11,30.02,29.92,10,10,10,15,5,21,0.00,4,,279
2013-6-9,68,56,45,46,42,38,87,55,35,30.22,30.19,30.12,10,10,10,16,7,21,0.00,4,Rain,269
2013-6-10,61,54,48,47,43,39,92,69,47,30.28,30.26,30.22,10,10,9,14,6,23,0.03,6,Rain,267
2013-6-11,66,54,42,42,39,35,85,56,32,30.28,30.21,30.11,10,10,10,9,4,,0.00,3,,338
2013-6-12,71,56,40,38,33,28,79,39,21,30.13,30.09,30.04,10,10,10,15,6,21,0.00,1,,58
2013-6-13,76,58,41,40,33,25,76,38,15,30.13,30.09,30.05,10,10,10,13,4,18,0.00,0,,36
2013-6-14,81,62,45,44,38,28,75,39,15,30.17,30.14,30.09,10,10,10,9,3,,0.00,0,,305
2013-6-15,83,66,49,50,41,36,69,40,20,30.24,30.20,30.14,10,10,4,10,5,,0.00,0,,314
2013-6-16,86,70,55,54,49,46,70,45,30,30.24,30.19,30.13,10,10,10,14,5,,0.00,3,,295
2013-6-17,85,72,58,53,42,33,81,35,16,30.19,30.14,30.07,10,10,10,21,7,24,0.00,0,,32
2013-6-18,85,72,59,45,41,39,54,30,21,30.09,29.99,29.87,10,10,10,20,8,23,0.00,0,,105
2013-6-19,85,72,60,43,41,37,50,28,18,29.90,29.84,29.79,10,10,10,23,9,28,0.00,0,,124
2013-6-20,84,68,53,47,43,40,63,38,21,29.92,29.85,29.77,10,10,6,9,4,,0.00,1,,329
2013-6-21,72,66,58,57,51,44,84,62,37,29.91,29.86,29.80,10,10,10,12,6,18,0.01,4,Rain,172
2013-6-22,75,62,50,48,42,40,78,47,30,29.90,29.81,29.69,10,10,10,7,1,,0.00,1,,357
2013-6-23,82,64,46,47,43,37,82,44,20,29.70,29.64,29.56,10,10,10,10,2,,0.00,1,,357
2013-6-24,85,72,59,53,47,43,67,37,23,29.64,29.60,29.57,10,9,2,10,5,,0.00,4,,53
2013-6-25,90,74,58,54,51,47,71,41,23,29.65,29.61,29.58,10,10,10,18,6,23,0.00,1,,43
2013-6-26,90,78,66,56,52,49,59,40,24,29.69,29.66,29.62,10,10,10,9,5,,0.00,0,,13
2013-6-27,80,70,60,60,57,54,82,62,49,29.98,29.86,29.72,10,6,2,14,5,18,0.00,4,,261
2013-6-28,77,67,57,59,55,52,88,70,47,30.04,30.01,29.98,10,4,2,9,4,,0.00,5,Rain,163
2013-6-29,77,68,59,57,55,53,85,61,44,30.00,29.97,29.88,10,7,2,7,4,,0.00,4,,59
2013-6-30,85,70,55,55,53,50,83,54,30,29.88,29.75,29.62,10,9,5,15,4,20,0.00,2,,215